Flag for Germany Weather past 2 weeks in Geretsried, Bavaria, Germany

Now
66 °F

Broken clouds.


Feels Like: 66 °F
Forecast: 59 / 66 °F
Wind: 9 mph from West

Location: Oberpfaffenhofen

Current Time: Jul 29, 2014 at 8:17:19 PM

Latest Report: Jul 29, 2014 at 7:50 PM


Visibility: N/A

Pressure: 29.80 "Hg

Humidity: 78%

Dew point: 59 °F

Location of GeretsriedLocation

Historic Weather in Geretsried — Graph

°F

Geretsried temperature yesterday

Maximum temperature yesterday: 77 °F (at 3:20 PM)
Minimum temperature yesterday: 55 °F (at 6:50 AM)
Average temperature yesterday: 71 °F

Past Weeks' High & Low Weather Summary

 TemperatureHumidityPressure
High90 °F (Jul 19, 5:50 PM)100% (Jul 16, 6:50 AM)30.24 "Hg (Jul 16, 6:50 AM)
Low52 °F (Jul 24, 6:50 AM)21% (Jul 19, 5:20 PM)29.77 "Hg (Jul 29, 3:20 PM)
Average70 °F63%30.01 "Hg
* Reported Jul 14 7:20 PM — Jul 29 7:20 PM, Geretsried, Weather by CustomWeather, © 2014

Note: Actual official high and low records may vary slightly from our data, if they occured in-between our weather recording intervals... More about our weather records

Advertising

Geretsried weather history for previous 24 hours

 ConditionsComfort  
Time TempWeatherWind HumidityBarometerVisibility
7:20 PM
Jul 29
66 °FBroken clouds.9 mph78%29.77 "HgN/A
6:50 PM66 °FSprinkles. Broken clouds.12 mph83%29.77 "HgN/A
6:20 PM68 °FSprinkles. Broken clouds.9 mph78%29.77 "HgN/A
5:50 PM68 °FScattered clouds.7 mph73%29.77 "HgN/A
5:20 PM70 °FScattered clouds.8 mph69%29.77 "HgN/A
4:50 PM68 °FBroken clouds.7 mph73%29.77 "HgN/A
4:20 PM70 °FPartly sunny.7 mph73%29.77 "HgN/A
3:50 PM68 °FPartly sunny.6 mph73%29.77 "HgN/A
3:20 PM68 °FPartly sunny.5 mph78%29.77 "HgN/A
2:50 PM68 °FPartly sunny.3 mph73%29.80 "HgN/A
2:20 PM66 °FPartly sunny.6 mph83%29.80 "HgN/A
1:50 PM64 °FMostly cloudy.5 mph83%29.80 "HgN/A
1:20 PM63 °FMostly cloudy.6 mph88%29.83 "HgN/A
12:50 PM63 °FPartly sunny.3 mph88%29.83 "HgN/A
12:20 PM63 °FPartly sunny.6 mph88%29.83 "HgN/A
11:50 AM63 °FLow clouds.5 mph88%29.83 "HgN/A
11:20 AM61 °FLow clouds.6 mph88%29.83 "HgN/A
10:50 AM61 °FLow clouds.7 mph94%29.83 "Hg5 mi
10:20 AM61 °FLow clouds.6 mph94%29.83 "Hg5 mi
9:50 AM61 °FLow clouds.5 mph94%29.83 "Hg6 mi
9:20 AM61 °FMore clouds than sun.6 mph94%29.80 "Hg4 mi
8:50 AM61 °FMostly cloudy.7 mph88%29.83 "Hg6 mi
8:20 AM61 °FMostly cloudy.7 mph88%29.83 "Hg4 mi
7:50 AM61 °FMostly cloudy.5 mph94%29.80 "Hg6 mi
7:20 AM61 °FMostly cloudy.6 mph88%29.83 "Hg6 mi
6:50 AM61 °FMostly cloudy.9 mph88%29.80 "Hg6 mi
8:20 PM
Jul 28
73 °FSunny.6 mph61%29.80 "Hg10 mi
Weather by CustomWeather, © 2014

See weather overviewHow to use our weather pages